This is the latest recevied weather packets stored in our database for station/object N3OZD-10. If no packets are shown the sender has not sent any weather packets the latest 10 day(s).
| Time | Temp. | Humidity | Pressure | Rain* | Wind** | Luminosity | Snow |
|---|---|---|---|---|---|---|---|
| 1777413757 | 13.89° C | 60% | 1017.8 hPa | 0 mm | - | - | - |
| 1777413457 | 13.89° C | 60% | 1017.7 hPa | 0 mm | - | - | - |
| 1777413161 | 13.89° C | 59% | 1017.7 hPa | 0 mm | - | - | - |
| 1777412857 | 13.89° C | 58% | 1017.7 hPa | 0 mm | - | - | - |
| 1777412557 | 13.89° C | 59% | 1017.8 hPa | 0 mm | - | - | - |
| 1777412259 | 13.89° C | 60% | 1017.8 hPa | 0 mm | - | - | - |
| 1777411957 | 13.89° C | 59% | 1017.9 hPa | 0 mm | - | - | - |
| 1777411657 | 13.89° C | 60% | 1018 hPa | 0 mm | - | - | - |
| 1777411359 | 14.44° C | 61% | 1017.9 hPa | 0 mm | - | - | - |
| 1777411057 | 13.89° C | 60% | 1017.8 hPa | 0 mm | - | - | - |
| 1777410757 | 13.89° C | 57% | 1017.8 hPa | 0 mm | - | - | - |
| 1777410457 | 14.44° C | 61% | 1017.8 hPa | 0 mm | - | - | - |
| 1777410159 | 13.89° C | 62% | 1017.8 hPa | 0 mm | - | - | - |
| 1777409857 | 13.89° C | 61% | 1017.7 hPa | 0 mm | - | - | - |
| 1777409562 | 13.33° C | 61% | 1017.7 hPa | 0 mm | - | - | - |
| 1777409257 | 12.78° C | 63% | 1017.7 hPa | 0 mm | - | - | - |
| 1777408959 | 13.89° C | 63% | 1017.9 hPa | 0 mm | - | - | - |
| 1777408657 | 13.89° C | 61% | 1018 hPa | 0 mm | - | - | - |
| 1777408059 | 13.89° C | 61% | 1018 hPa | 0 mm | - | - | - |
| 1777407762 | 13.89° C | 60% | 1018 hPa | 0 mm | - | - | - |
| 1777407457 | 13.89° C | 64% | 1018 hPa | 0 mm | - | - | - |
| 1777406859 | 13.89° C | 68% | 1018.1 hPa | 0 mm | - | - | - |
| 1777406557 | 13.89° C | 65% | 1018 hPa | 0 mm | - | - | - |
| 1777406257 | 13.89° C | 68% | 1018.1 hPa | 0 mm | - | - | - |
| 1777405961 | 13.89° C | 65% | 1018.3 hPa | 0 mm | - | - | - |
* Rain latest hour (hover to see other rain measurements)
** Current wind speed in m/s (hover to see current wind gust speed)